METEOR 2-17 DEB, 38539

Orbit data source: Space-Track

METEOR 2-17 DEB, 38539 is space debris in LEO originally from a launch on Sat, 30 Jan 1988 UTC launched from the Plesetsk Missile And Space Complex (PKMTR). Debris objects in space refer to the collection of defunct objects orbiting the Earth. Examples of debris include non-operational satellites, rocket bodies, and fragments generated from explosions, collisions, or faulty payload assembly.

Loading next visibility...
Identifier
38539, 1988-005AS
Orbit
LEO
Country
Flag of CISCIS
Related business
Manufacturer
Unknown
Mission
Spacecraft
Bus & Motor
Unknown
Mass
Unknown
Launch date (UTC)
1988-01-30 (38 years ago)
Launch vehicle
Unknown
Launch site
Plesetsk Missile And Space Complex (PKMTR)
Object type
Payload
Rocket body
Debris
Shape & HBR
Unknown shape, 0.1 m
Radar Cross Section
Small (<0.1 m²)

Expand to show TLE details & history
Last TLE update: 1 week ago

TLE from 1 week ago
0 METEOR 2-17 DEB
1 38539U 88005AS  25299.72217575  .00002618  00000-0  17660-2 0  9991
2 38539  82.5313  97.3574 0035750 217.1880 142.6812 13.99843093 67730
Epoch: 2025-10-26T17:19Z
TLE epoch observation values (Epoch: 2025-10-26T17:19:55.984Z)
Latitude
-0.00011°
Longitude
162.03982°
Altitude
917.976 km
Speed
7.382 km/s
True Right ascension
06h 29m 25s
True Declination
0° 00' 00"
Sunlit
Object was in daylight at epoch
Visualization orbit readout
Latitude
Unknown
Longitude
Unknown
Altitude
Unknown
Speed
Unknown
Apparent Right ascension
Unknown
Apparent Declination
Unknown
Sunlit
N/A
Visualization observer readout
Local Sidereal Time
23:52:33
Azimuth
Unknown
Elevation
Unknown
Doppler factor
Unknown
Orbital elements
Apogee altitude
917.458 km
Perigee altitude
865.48 km
Semi-major axis
7,269.606 km
Eccentricity
0.00358
Inclination
82.5313°
RAAN
97.3574°
Arg. of periapsis
217.188°
True anomaly
142.92868°
Mean anomaly
142.6812°
Eccentric anomaly
142.80503°
Mean motion
3.50168 °/min
Orbital period
102.81 mins
BSTAR
0.001766
Loading maneuver chart data...
Computing Atmospheric mass density...
Loading historical data...
Loading historical data...
Loading historical data...
Loading historical data...
Loading historical data...
Loading historical data...
Loading historical data...

Documentation

Showing up to 5 results
|